Location: Pcim
(49.7500°N, 19.9670°E)
Time: 18:08:57
(UTC+02:00)

AO-27 - Pass Details

Date: 26 April 2024
Orbit: 783 x 797 km, 98.8° (Epoch: 28 May)

Event Time Altitude Azimuth Distance (km) Brightness Sun altitude
Exits shadow 20:47:46 - 161° (SSE) 2,874 10.1 -8.9°
Reaches altitude 10° 20:49:03 10° 161° (SSE) 2,363 9.7 -9.0°
Maximum altitude 20:54:17 86° 74° (ENE) 806 7.7 -9.7°
Drops below altitude 10° 20:59:33 10° 346° (NNW) 2,379 11.0 -10.4°
Sets 21:01:54 0° 346° (NNW) 3,312 11.8 -10.7°
